Regional Weather Roundup
Issued by NWS

Home | Current Version | Previous Version | Graphics & Text | Print | Product List | Glossary On
Versions: 1 2 3 4 5 6 7 8 9 10 11 12 13 14 15 16 17 18 19 20 21 22 23 24 25 26 27 28 29 30 31 32 33 34 35 36 37 38 39 40 41 42 43 44 45 46 47 48 49 50
879
ASUS43 KLSX 190857
RWRMO

WEATHER SUMMARY FOR MISSOURI
NATIONAL WEATHER SERVICE SPRINGFIELD MO
300 AM CST MON FEB 19 2018

NOTE: "FAIR" INDICATES FEW OR NO CLOUDS BELOW 12,000 FEET WITH NO
       SIGNIFICANT WEATHER AND/OR OBSTRUCTIONS TO VISIBILITY.
       CURRENT SKY AND/OR WEATHER CONDITIONS ARE NOT AVAILABLE FOR
       CHILLICOTHE AND FARMINGTON.

MOZ001>031-035>038-043-044-053-054-191000-
...NORTHERN AND WESTERN MISSOURI...

CITY           SKY/WX    TMP DP  RH WIND       PRES   REMARKS
KANSAS CTY INT DRIZZLE   56  54  93 S21       29.61F
LEE`S SUMMIT   CLOUDY    57  57 100 S20G35    29.65F
ST JOSEPH      CLOUDY    54  53  97 S17       29.60F
CHILLICOTHE      N/A     49  48  97 SE7       29.69F

$$
MOZ066>068-077>081-088>096-101>105-191000-
...SOUTHWEST MISSOURI...

CITY           SKY/WX    TMP DP  RH WIND       PRES   REMARKS
SPRINGFIELD    CLOUDY    53  51  93 S12       29.82S
JOPLIN         CLOUDY    60  58  92 S29G38    29.76F

$$
MOZ032>034-039>042-045>050-055>058-069>072-191000-
...CENTRAL MISSOURI...

CITY           SKY/WX    TMP DP  RH WIND       PRES   REMARKS
COLUMBIA       NOT AVBL
JEFFERSON CITY CLOUDY    57  51  80 S12G23    29.78F
ROLLA          CLOUDY    55  53  93 S15G26    29.84F
SEDALIA        CLOUDY    59  55  87 S17       29.73F
WHITEMAN AFB   LGT RAIN  52  52 100 S7        29.67F
WARRENSBURG    LGT RAIN  57  55  94 S12G17    29.69F

$$
MOZ051-052-059>065-191000-
...EAST CENTRAL MISSOURI...

CITY           SKY/WX    TMP DP  RH WIND       PRES   REMARKS
ST LOUIS INTL  CLOUDY    54  50  86 S14       29.87S

$$
MOZ072>076-082>087-097>100-106>115-191000-
...SOUTH CENTRAL AND SOUTHEAST MISSOURI...

CITY           SKY/WX    TMP DP  RH WIND       PRES   REMARKS
CAPE GIRARDEAU CLOUDY    54  53  97 S10       30.02S FOG
POPLAR BLUFF   CLOUDY    54  54 100 S10       30.01S FOG
WEST PLAINS    CLOUDY    53  52  96 S10G18    29.93F FOG

$$



USA.gov is the U.S. government's official web portal to all federal, state and local government web resources and services.